Delta Virtual Airport Information Service

Singapore Changi Airport

ICAO: WSSS Country: Singapore
Latitude: 1.35019 Longitude: 103.994
Latest Arrival : SIA21 (KEWR-WSSS) Latest Departure : QFA1 (B) (WSSS-EGLL)


WX CaptureLIVE
Data provided by noaa.gov | Fetched at 06:31:30

METAR : WSSS 271100Z 33009KT 300V360 9999 FEW016 FEW018TCU BKN300 28/23 Q1006 NOSIG

TAF : WSSS 271100Z 33009KT 300V360 9999 FEW016 FEW018TCU BKN300 28/23 Q1006 NOSIG


Runway Data for WSSS
Data provided by openaviationdata.com

Runway ID Mag Var Hdg Length Elevation Surface ILS Freq ILS Id ILS Slope
02L 0 22° 13152 ft 22 ft Bituminous 110.9 ICW 3
02C 0 22° 13179 ft 22 ft Bituminous 108.3 ICE 3
20R 0 202° 13152 ft 22 ft Bituminous 108.9 ICH 3
20C 0 202° 13179 ft 22 ft Bituminous 109.7 ICC 3

Singapore Changi Airport, Singapore
Use only for reference purposes



Not for navigational purposes.